Wind_Speed
65 61 60 60 52 45 44 48 49 48 48 48 51 47 52 52 46 37 40 20 42 37 28 26 29 28 31 23 22 18 16 19 18 19 19 21 19 16 14 12 11 11 10 14 12 13 13 15 18
66 65 64 61 55 50 47 52 53 55 55 55 52 54 54 56 47 49 33 38 30 36 33 31 33 29 32 33 27 21 27 22 21 22 19 16 21 23 18 15 15 15 14 15 17 20 21 21 23
66 65 64 62 57 53 49 56 58 60 62 60 61 57 59 58 52 56 41 39 32 41 34 34 32 32 35 34 32 30 22 21 24 16 22 11 17 20 16 19 20 23 22 21 21 24 25 21 25
68 66 66 61 59 57 57 58 64 61 62 63 62 61 59 60 62 63 57 46 39 44 40 39 36 34 36 36 33 32 27 20 22 19 19 24 18 21 19 15 19 19 21 22 23 24 25 22 23
68 69 67 63 58 58 59 61 67 66 66 69 67 63 62 64 60 61 68 54 47 46 48 44 40 37 38 40 37 37 37 32 19 18 17 21 20 20 19 20 26 21 24 23 23 26 22 23 26
67 69 66 63 62 64 63 67 69 70 71 70 68 69 66 68 69 62 64 67 60 53 53 53 47 42 39 43 39 37 37 37 34 25 25 23 25 24 23 27 30 32 31 28 28 28 29 33 37
64 67 66 67 65 65 67 68 70 75 76 75 75 72 68 72 72 71 62 65 71 63 57 59 54 50 47 42 40 39 40 39 41 32 28 28 29 31 33 34 36 36 32 27 28 29 32 38 41
68 68 67 66 66 71 76 75 74 76 78 79 80 78 72 73 75 73 67 63 67 68 64 62 58 53 51 44 41 37 43 44 43 43 41 41 38 36 37 34 35 35 36 37 35 36 36 41 48
74 70 67 67 69 73 78 81 81 83 81 84 83 82 79 77 78 76 71 65 67 69 66 62 61 59 56 51 46 43 42 46 46 45 45 44 41 37 39 40 39 40 41 41 42 44 48 50 49
79 76 74 77 77 77 81 83 87 86 84 87 87 87 85 79 78 80 72 70 68 72 63 67 64 58 60 56 53 49 46 46 44 45 44 46 43 40 40 40 38 40 41 42 44 50 50 52 50
87 82 83 83 86 84 84 85 87 86 89 91 88 91 90 81 81 79 79 74 73 75 64 66 65 68 61 60 56 55 54 47 46 43 42 41 38 42 40 43 43 44 45 46 49 51 52 53 52
96 93 91 90 92 91 89 89 89 91 89 95 95 94 88 83 83 86 80 78 79 76 71 64 67 69 67 64 61 57 58 55 49 47 46 42 44 43 43 44 47 47 46 48 52 54 54 49 53
107 108 107 104 101 100 100 96 94 92 93 97 98 99 92 87 81 85 84 85 82 78 71 69 67 66 74 69 66 59 56 56 54 56 53 49 49 50 51 50 50 52 49 53 54 54 54 56 63
120 120 117 115 112 110 109 106 106 95 98 102 104 100 93 98 91 84 85 85 83 78 71 70 69 66 72 71 70 66 61 58 54 53 55 59 55 56 56 56 56 52 53 52 54 55 60 62 68
119 124 127 125 123 120 120 120 113 106 107 110 108 104 98 96 95 93 90 85 81 75 69 76 81 76 73 70 71 71 69 67 61 61 57 58 56 57 62 61 63 66 65 66 69 67 66 68 72
100 106 115 127 133 130 134 126 122 118 118 116 115 109 102 98 99 99 94 88 81 74 55 54 72 75 79 73 71 76 71 68 69 68 67 65 63 63 64 66 66 69 72 73 71 70 71 74 77
78 85 97 107 119 136 138 132 127 123 126 123 120 114 107 102 97 102 98 93 88 83 84 72 71 81 85 78 65 78 72 64 67 70 71 71 71 72 72 71 70 72 74 74 74 75 77 79 76
63 69 80 89 103 114 129 138 133 129 131 127 125 121 113 107 99 104 102 98 94 86 88 68 45 67 71 82 85 89 75 66 70 68 68 70 72 74 76 77 77 79 80 78 78 78 77 73 72
51 53 63 72 88 101 108 119 128 134 136 131 128 125 118 111 103 107 107 100 101 91 89 95 85 59 74 85 78 72 86 74 73 73 72 70 71 71 73 74 78 78 77 75 73 72 74 74 77
38 43 53 59 71 84 93 102 109 126 140 137 135 129 122 116 110 108 111 103 101 96 91 88 81 48 52 79 90 73 74 77 76 77 74 74 74 74 73 75 76 76 75 73 75 77 78 79 82
35 37 40 48 56 66 81 90 96 109 124 135 137 136 131 119 114 114 113 108 102 95 90 91 94 93 99 70 66 87 79 77 80 81 78 76 77 78 78 78 80 79 80 79 80 82 82 83 84
31 29 32 39 46 57 68 70 83 96 111 124 133 138 133 128 121 118 117 108 105 95 90 90 94 102 110 103 83 66 61 67 70 76 79 79 81 80 80 81 82 82 82 83 83 83 83 85 86
28 25 27 32 37 48 61 60 72 88 98 109 120 128 133 132 129 123 116 112 105 98 90 88 92 97 94 79 71 48 63 62 63 59 62 69 73 74 77 79 83 82 84 87 87 85 85 86 87
23 22 25 27 30 40 53 45 65 70 81 94 106 119 125 132 131 121 115 113 105 100 93 89 90 92 88 74 70 57 75 77 80 85 88 88 86 77 79 78 73 71 72 69 74 80 84 85 84
24 22 22 22 24 33 40 44 55 66 73 83 97 109 116 124 128 119 117 114 105 98 92 91 84 88 81 75 75 53 42 60 68 83 80 68 73 77 75 71 73 66 61 77 87 82 81 82 81
28 25 22 16 23 27 38 39 50 57 65 75 90 100 109 122 128 125 118 113 106 94 92 88 84 79 76 79 79 79 95 68 61 68 72 77 75 81 83 85 83 82 89 89 85 80 80 81 83
29 25 23 15 22 25 36 33 42 49 58 66 78 91 100 118 126 124 118 117 99 89 88 87 85 76 73 79 77 80 84 85 92 91 85 81 82 80 85 86 85 87 86 83 82 80 77 74 75
28 29 24 20 21 24 30 26 37 45 48 56 68 85 97 112 122 124 120 117 98 87 87 87 81 72 70 66 67 72 78 82 88 89 86 83 80 78 79 82 85 80 79 78 72 70 71 69 70
26 26 26 22 24 22 24 24 33 36 40 52 67 81 91 109 118 121 122 113 98 89 84 83 77 70 64 59 58 64 70 76 81 81 75 78 77 77 79 83 77 76 70 66 69 66 65 66 70
23 24 25 21 24 19 16 24 28 30 37 46 59 75 85 98 110 116 118 109 98 88 85 72 70 68 61 60 59 60 60 61 64 66 67 65 67 74 74 67 67 67 71 68 64 62 64 66 71
Wind_Direction
247 244 245 242 239 238 231 224 227 227 227 226 223 215 211 215 207 218 222 260 240 225 221 234 232 231 233 239 225 238 248 247 245 244 243 249 257 252 250 260 268 276 286 288 290 297 303 316 330
243 244 241 242 240 238 227 234 226 227 230 226 224 223 214 217 211 221 224 234 241 224 215 226 232 225 228 227 242 246 269 242 258 250 245 251 261 246 251 264 271 277 280 289 289 287 294 300 307
244 245 244 243 240 242 237 234 229 230 229 229 225 223 223 208 210 221 226 217 231 227 221 224 228 225 226 235 244 244 258 258 267 263 242 274 285 244 279 266 285 282 280 283 281 280 285 292 301
242 245 244 244 244 245 242 237 230 232 229 228 231 229 226 213 209 224 226 213 225 223 222 227 231 229 226 232 235 237 245 253 279 253 241 251 264 254 272 280 289 290 282 290 282 278 281 290 299
242 242 242 243 241 241 241 242 234 237 233 230 227 226 225 222 211 225 232 222 223 224 223 224 232 232 238 234 241 245 241 246 270 231 246 242 259 270 262 268 272 286 292 294 295 289 279 286 298
243 243 240 239 236 237 236 237 240 239 236 232 231 227 226 223 216 224 229 229 223 232 227 231 228 229 240 243 244 243 250 247 247 239 250 255 254 260 257 261 271 283 287 280 293 288 287 290 296
247 245 241 239 239 238 237 236 237 237 238 234 231 228 224 226 223 222 230 231 233 230 233 232 234 232 232 243 244 245 244 249 251 244 251 256 258 265 269 272 272 279 283 288 291 293 295 296 297
245 245 246 244 240 238 240 237 234 236 238 234 235 231 227 227 224 227 220 232 235 230 227 231 233 234 235 236 240 245 247 248 250 254 253 254 262 265 267 274 272 275 278 283 286 292 294 296 300
247 246 242 241 242 238 238 237 237 235 234 236 238 236 232 225 227 227 224 226 235 234 227 227 232 233 238 236 233 239 247 247 249 252 255 258 262 267 270 271 274 273 276 280 286 291 296 297 298
252 249 246 242 239 238 239 239 236 236 236 237 238 238 236 232 229 228 227 224 232 236 229 231 229 231 234 239 237 236 241 246 248 253 256 261 267 270 268 271 276 279 278 281 286 291 291 292 295
256 253 249 244 239 237 237 240 241 237 237 238 238 239 241 234 229 230 228 229 227 236 230 234 232 232 232 237 240 242 241 242 246 250 252 259 269 270 265 270 278 280 281 282 284 284 288 291 291
258 255 250 247 242 236 235 236 240 240 238 239 237 239 240 236 230 227 225 228 229 231 234 231 233 234 232 234 236 242 245 245 241 245 249 251 250 261 264 269 278 277 279 282 281 282 285 287 288
259 255 251 248 246 242 236 235 237 240 240 239 238 238 237 239 233 230 227 224 230 228 231 232 234 237 238 236 234 236 240 247 246 244 249 251 250 254 259 263 267 270 274 277 278 279 279 277 284
256 252 249 247 245 241 239 237 237 236 237 240 239 237 235 237 235 231 231 227 226 232 232 237 235 238 239 238 239 241 240 242 244 250 252 253 252 255 260 260 264 266 268 270 274 278 281 285 290
253 249 246 243 240 240 240 235 235 233 233 237 239 238 234 234 234 232 228 229 225 226 238 241 236 238 241 240 242 241 244 246 244 245 244 251 254 255 258 260 261 265 273 277 281 286 289 292 294
252 248 245 241 240 237 237 235 234 233 234 232 235 235 234 231 234 232 229 224 223 219 226 244 242 240 244 245 248 244 240 247 249 250 252 253 255 255 259 262 265 269 272 276 280 284 288 293 295
251 246 242 240 238 237 237 235 233 233 233 233 233 234 233 230 230 234 230 226 221 213 214 233 244 235 242 243 247 248 243 245 251 250 254 256 259 262 263 265 267 269 272 276 280 285 288 290 292
250 246 243 237 238 236 234 236 232 231 232 232 232 232 232 230 227 234 232 228 225 215 215 207 240 234 237 244 249 246 246 250 250 251 257 258 260 262 265 268 271 273 275 278 282 286 287 288 291
254 249 244 240 238 237 234 233 230 231 231 229 232 231 230 229 226 231 233 228 229 219 216 217 229 245 249 243 245 235 237 245 253 256 259 260 263 265 267 269 270 273 276 278 281 285 287 289 292
263 250 247 243 238 237 236 233 229 227 228 227 227 229 230 228 228 231 233 231 230 225 215 217 221 236 254 242 230 234 241 253 255 259 263 265 267 267 269 271 274 276 280 283 284 286 289 291 292
266 258 250 242 239 238 235 233 228 227 228 226 226 226 228 228 229 232 233 231 231 229 221 215 213 214 216 243 242 244 254 261 260 259 262 266 268 269 272 275 277 279 280 282 283 285 288 290 292
269 260 257 248 239 237 237 232 231 226 225 224 224 225 226 227 227 232 233 232 231 229 227 221 218 218 223 234 242 247 260 262 263 262 263 264 266 269 273 274 278 280 282 282 284 287 289 292 294
278 268 258 249 242 241 240 228 231 226 224 223 221 222 223 226 227 228 232 232 231 229 228 226 223 226 228 230 237 250 250 247 256 259 262 265 270 272 274 275 279 281 281 282 283 288 293 296 298
292 281 261 252 242 245 242 228 232 230 225 223 222 218 217 221 226 225 226 231 229 229 228 228 227 227 228 228 230 213 238 258 264 268 271 271 270 274 278 276 280 284 286 287 291 293 295 296 297
301 292 270 258 245 248 241 235 230 229 223 219 219 216 214 215 220 223 224 226 226 226 226 228 229 229 228 226 227 216 250 254 267 260 266 266 269 270 273 275 280 283 285 294 297 295 295 297 298
298 295 277 260 250 247 242 232 233 228 226 217 217 216 210 212 216 218 220 225 224 223 227 227 229 231 229 226 226 220 224 238 258 257 262 273 271 270 274 281 282 280 288 294 295 296 299 299 299
295 290 286 263 251 238 247 233 233 230 223 219 214 214 210 209 212 214 216 223 222 222 227 228 229 229 230 229 228 230 231 234 240 251 262 264 271 275 276 278 280 285 288 291 294 297 298 300 299
296 289 285 272 257 249 247 230 229 231 224 217 212 211 210 208 209 209 213 219 219 219 225 229 229 226 230 234 235 237 240 240 244 249 256 262 268 273 272 275 279 286 290 292 294 296 298 298 298
295 285 284 276 266 255 244 225 226 225 218 212 209 207 211 207 206 207 211 214 215 216 220 226 230 230 232 239 242 240 242 246 250 254 259 262 266 269 270 274 281 285 286 293 298 297 299 299 300
291 285 282 276 270 265 245 236 219 212 210 208 207 206 204 205 204 206 208 209 210 212 216 222 227 233 236 237 240 249 254 254 253 256 259 263 263 263 268 275 277 280 288 292 295 297 298 301 301
Height
10904 10910 10918 10924 10937 10945 10944 10946 10947 10953 10955 10956 10959 10966 10967 10973 10977 10980 10978 10977 10975 10981 10981 10986 10991 10995 10999 11003 11004 11007 11009 11010 11011 11010 11011 11012 11013 11013 11012 11011 11011 11012 11012 11011 11011 11010 11008 11007 11006
10895 10903 10910 10918 10930 10936 10938 10932 10941 10939 10943 10946 10953 10956 10957 10966 10973 10973 10969 10973 10972 10976 10978 10981 10987 10991 10995 10999 11002 11004 11006 11007 11008 11008 11009 11010 11009 11010 11010 11009 11009 11009 11009 11009 11008 11007 11006 11005 11004
10886 10892 10900 10909 10920 10927 10929 10924 10927 10928 10931 10936 10938 10943 10949 10956 10961 10957 10956 10964 10965 10970 10973 10977 10983 10987 10991 10996 10999 11002 11005 11006 11005 11005 11006 11007 11007 11008 11008 11007 11007 11007 11005 11005 11005 11003 11003 11002 11000
10877 10884 10888 10901 10909 10912 10914 10911 10915 10917 10922 10925 10932 10939 10942 10948 10952 10952 10948 10956 10960 10963 10967 10974 10979 10983 10987 10992 10994 10998 11001 11002 11001 11002 11002 11004 11005 11006 11005 11005 11004 11003 11003 11002 11001 11000 11000 10998 10996
10866 10872 10879 10889 10895 10896 10900 10901 10903 10907 10908 10909 10915 10923 10932 10940 10947 10947 10942 10949 10953 10957 10962 10970 10975 10979 10983 10986 10990 10993 10995 10998 10999 10999 11000 11002 11003 11003 11002 11002 11001 11001 11000 10999 10998 10997 10995 10993 10990
10855 10858 10869 10875 10878 10878 10884 10887 10888 10893 10893 10899 10907 10910 10922 10924 10934 10936 10938 10940 10945 10951 10957 10963 10968 10974 10978 10981 10984 10987 10991 10993 10996 10996 10997 10999 11000 11000 11000 10998 10998 10997 10996 10995 10994 10993 10992 10990 10987
10839 10841 10853 10858 10863 10866 10869 10871 10876 10875 10875 10887 10889 10895 10908 10911 10921 10928 10932 10934 10935 10945 10950 10956 10962 10966 10971 10975 10978 10982 10984 10988 10990 10992 10993 10995 10995 10996 10996 10995 10993 10993 10993 10991 10989 10989 10988 10985 10982
10821 10827 10838 10844 10848 10852 10848 10852 10858 10861 10862 10864 10868 10878 10888 10899 10905 10911 10930 10930 10925 10934 10940 10947 10953 10958 10964 10968 10972 10975 10979 10982 10984 10986 10989 10990 10990 10990 10991 10990 10990 10988 10987 10987 10985 10984 10981 10979 10975
10802 10814 10825 10826 10829 10831 10826 10834 10838 10836 10845 10845 10855 10860 10872 10884 10893 10898 10917 10925 10920 10919 10934 10940 10946 10950 10954 10960 10964 10969 10972 10975 10977 10979 10982 10983 10983 10984 10985 10985 10985 10983 10982 10981 10979 10976 10974 10971 10968
10784 10795 10805 10805 10806 10810 10809 10813 10814 10824 10835 10832 10838 10841 10850 10873 10883 10887 10900 10915 10912 10907 10925 10930 10938 10942 10947 10951 10956 10961 10965 10968 10970 10972 10975 10976 10977 10978 10978 10978 10978 10977 10975 10974 10972 10968 10967 10965 10962
10759 10774 10777 10782 10785 10788 10793 10796 10798 10811 10818 10818 10825 10827 10841 10858 10868 10877 10885 10898 10901 10898 10917 10920 10932 10933 10939 10943 10949 10953 10958 10960 10963 10966 10968 10969 10970 10971 10971 10971 10970 10969 10967 10966 10964 10962 10961 10957 10954
10733 10745 10751 10755 10759 10765 10774 10776 10781 10786 10804 10800 10809 10809 10823 10842 10852 10858 10870 10881 10889 10893 10901 10914 10918 10922 10926 10932 10937 10943 10947 10952 10957 10958 10960 10962 10963 10964 10964 10963 10962 10961 10959 10959 10957 10954 10952 10950 10947
10700 10704 10712 10722 10732 10741 10746 10756 10763 10772 10780 10780 10784 10793 10812 10820 10836 10844 10853 10864 10877 10888 10896 10905 10909 10914 10912 10920 10925 10932 10937 10942 10947 10950 10952 10955 10956 10956 10956 10954 10954 10953 10954 10951 10949 10946 10944 10941 10937
10646 10656 10670 10685 10697 10706 10718 10732 10732 10760 10760 10754 10760 10774 10795 10797 10812 10830 10841 10853 10875 10885 10897 10903 10910 10906 10903 10912 10916 10923 10929 10933 10938 10939 10943 10944 10948 10948 10948 10947 10946 10947 10945 10943 10940 10937 10934 10933 10929
10605 10612 10625 10642 10654 10669 10673 10690 10709 10731 10730 10726 10737 10754 10775 10781 10795 10806 10820 10838 10864 10886 10887 10879 10885 10903 10899 10902 10905 10913 10919 10921 10927 10929 10932 10934 10938 10939 10939 10939 10938 10937 10936 10930 10928 10929 10925 10923 10919
10558 10567 10582 10595 10607 10625 10625 10654 10682 10701 10698 10703 10708 10727 10751 10767 10768 10782 10801 10821 10848 10875 10873 10862 10885 10900 10901 10898 10896 10900 10908 10911 10915 10917 10920 10923 10927 10930 10929 10929 10931 10927 10924 10922 10922 10921 10919 10915 10911
10524 10532 10539 10553 10564 10578 10590 10620 10648 10667 10669 10682 10689 10706 10726 10746 10754 10760 10780 10803 10829 10860 10863 10860 10854 10865 10883 10891 10889 10886 10901 10902 10901 10906 10910 10914 10918 10918 10919 10920 10920 10917 10914 10914 10913 10913 10910 10905 10900
10500 10507 10508 10523 10524 10537 10554 10572 10613 10635 10635 10656 10669 10681 10701 10724 10744 10735 10759 10783 10801 10850 10860 10867 10835 10854 10876 10893 10884 10880 10892 10893 10891 10894 10902 10904 10907 10908 10910 10909 10910 10906 10904 10907 10906 10905 10898 10894 10890
10483 10487 10487 10494 10500 10505 10524 10540 10575 10602 10604 10631 10643 10660 10682 10704 10726 10720 10738 10761 10769 10827 10848 10845 10852 10866 10870 10875 10876 10872 10880 10886 10883 10885 10894 10895 10897 10899 10901 10901 10895 10894 10896 10898 10897 10893 10888 10885 10881
10468 10469 10469 10474 10477 10484 10500 10515 10541 10557 10571 10596 10615 10635 10658 10682 10704 10704 10716 10743 10752 10791 10835 10851 10864 10866 10839 10833 10846 10869 10876 10880 10877 10879 10882 10884 10888 10888 10891 10888 10888 10887 10888 10889 10885 10880 10876 10873 10870
10454 10453 10454 10457 10463 10467 10470 10490 10510 10526 10542 10570 10594 10612 10633 10666 10685 10688 10695 10726 10743 10771 10806 10834 10856 10855 10800 10808 10841 10870 10879 10875 10869 10869 10871 10877 10876 10879 10882 10881 10878 10877 10874 10876 10873 10868 10865 10861 10857
10441 10443 10443 10443 10449 10449 10452 10478 10486 10498 10504 10530 10557 10586 10610 10638 10661 10672 10681 10710 10732 10758 10777 10799 10817 10833 10831 10835 10864 10861 10867 10856 10851 10862 10865 10863 10865 10870 10872 10871 10869 10867 10865 10860 10857 10855 10852 10848 10843
10433 10433 10433 10433 10437 10435 10433 10459 10460 10465 10486 10506 10527 10557 10591 10615 10634 10653 10674 10692 10718 10742 10761 10776 10787 10796 10816 10844 10852 10873 10859 10837 10844 10851 10852 10853 10858 10861 10859 10858 10855 10854 10852 10849 10846 10843 10839 10834 10829
10424 10424 10423 10422 10426 10423 10421 10450 10438 10457 10475 10489 10508 10526 10561 10591 10610 10642 10659 10668 10707 10729 10748 10758 10771 10783 10806 10835 10845 10868 10824 10839 10843 10844 10844 10847 10846 10846 10846 10843 10841 10841 10839 10835 10835 10832 10826 10822 10816
10416 10414 10413 10414 10415 10412 10418 10426 10428 10433 10448 10467 10483 10504 10543 10567 10589 10625 10643 10653 10686 10716 10735 10745 10764 10777 10803 10826 10833 10868 10842 10844 10838 10832 10836 10827 10828 10828 10830 10829 10830 10830 10826 10826 10821 10820 10813 10807 10803
10408 10405 10403 10405 10404 10404 10402 10411 10414 10423 10432 10450 10461 10487 10518 10544 10569 10597 10625 10642 10670 10706 10724 10739 10757 10773 10798 10809 10822 10841 10831 10834 10826 10820 10818 10814 10815 10818 10819 10816 10818 10817 10816 10812 10809 10804 10801 10795 10787
10401 10397 10394 10395 10394 10394 10389 10401 10407 10414 10422 10436 10456 10474 10504 10517 10547 10582 10613 10621 10668 10701 10717 10730 10747 10770 10783 10795 10811 10817 10823 10825 10820 10808 10811 10808 10808 10812 10809 10807 10807 10808 10805 10801 10798 10793 10788 10782 10774
10392 10387 10387 10385 10385 10383 10383 10394 10398 10401 10417 10430 10446 10464 10481 10504 10529 10564 10593 10609 10662 10692 10704 10717 10739 10760 10770 10787 10801 10807 10809 10811 10802 10802 10802 10806 10806 10803 10797 10797 10797 10796 10793 10789 10785 10779 10773 10768 10762
10384 10381 10379 10378 10376 10377 10379 10386 10387 10395 10407 10417 10429 10446 10467 10487 10515 10551 10576 10615 10656 10681 10696 10711 10736 10752 10770 10780 10786 10788 10789 10790 10791 10792 10798 10793 10796 10792 10788 10788 10789 10786 10781 10776 10771 10766 10761 10756 10750
10377 10374 10371 10371 10369 10373 10377 10380 10382 10391 10398 10410 10423 10435 10453 10481 10506 10538 10565 10613 10645 10674 10692 10712 10732 10747 10762 10772 10775 10774 10777 10781 10780 10783 10783 10784 10784 10779 10778 10781 10779 10775 10771 10766 10761 10755 10751 10746 10739